[[{"header":{"parameterUnit":"m.s-1","parameterCategory":2,"la1":30.2991,"la2":30.254,"lo1":-89.0895,"lo2":-89.0444,"dy":0.0017,"dx":0.0017,"nx":28,"ny":28,"refTime":"2025-01-24T09:00:00:Z","depth":"0","parameterNumber":2,"parameterNumberName":"U-component_of_CURRENTS"},"data":[0,0,0,0,0,0,0,0,0,0,0,0,0,0,0,0,0,0,0,0,0,0,0,0,0,0,0,0,0,0,0,0,0,0,0,0,0,0,0,0,0,0,0,0,0,0,0,0,0,0,0,0,0,0,0,0,0,0,0.2974,0.2974,0,0.2956,0.2955,0.2955,0.2856,0.2854,0.2852,0.285,0.2712,0.2711,0.2709,0,0,0,0,0,0,0,0,0,0,0,0,0,0.3,0.2999,0.2974,0.2974,0.2974,0.2956,0.2955,0.2955,0.2857,0.2854,0.2852,0.285,0.2713,0.2711,0.2709,0,0,0,0,0,0,0,0,0,0,0,0,0,0.2982,0.2999,0.2974,0.2926,0.2921,0.2956,0.2955,0.2955,0.2857,0.2854,0.2851,0.2848,0.2714,0.2711,0.2709,0.2752,0,0,0.27,0.2699,0,0,0,0,0,0,0,0,0.2983,0.2981,0.2932,0.2929,0.2924,0.2909,0.2914,0.2882,0.2858,0.2878,0.285,0.2847,0.2772,0.2764,0.2764,0.2746,0.274,0.27,0.2698,0.2697,0.2697,0,0,0,0,0,0,0,0.2984,0.2982,0.2963,0.2933,0.2928,0.2932,0.2925,0.2908,0.2837,0.2876,0.2869,0.2874,0.2767,0.2767,0.2759,0.2738,0.27,0.2698,0.2696,0.2695,0.2791,0.2795,0,0,0,0,0,0,0.2994,0.2982,0.2963,0.2963,0.2951,0.2934,0.2926,0.2914,0.2839,0.2827,0.2877,0.287,0.2773,0.2763,0.2754,0.2857,0.2697,0.2695,0.2693,0.2787,0.2792,0.2797,0,0,0,0,0,0,0.2994,0.2991,0.2964,0.2976,0.2973,0.2936,0.2924,0.2915,0.2922,0.2842,0.2826,0.2893,0.277,0.2758,0.2769,0.2848,0.2694,0.2691,0.2782,0.2789,0.2795,0.3026,0,0,0,0,0,0,0.2994,0.2991,0.3001,0.2976,0.2973,0.3029,0.2927,0.2917,0.2931,0.2921,0.2852,0.2835,0.2767,0.2775,0.2767,0.2841,0.2689,0.2777,0.2785,0.2793,0.3013,0.3039,0.3062,0,0,0,0,0,0.2995,0.3041,0.3001,0.3001,0.2982,0.3034,0.3035,0.2994,0.2935,0.2979,0.2918,0.2837,0.2818,0.2776,0.2766,0.2841,0.2773,0.2783,0.2792,0.3002,0.3034,0.3061,0,0,0,0,0,0,0.3109,0.3034,0.2991,0.3022,0.3041,0.3019,0.3063,0.302,0.3009,0.2992,0.2889,0.2872,0.2918,0.2854,0.2809,0.2895,0.2785,0.2793,0.2948,0.2977,0.3001,0.3029,0.2687,0,0,0,0,0,0.3127,0.3106,0.308,0.3117,0.3128,0.3094,0.311,0.3086,0.3067,0.3058,0.3003,0.2956,0.2954,0.2941,0.2927,0.2971,0.2954,0.3014,0.3039,0.306,0.3079,0.316,0.3194,0.2828,0.2828,0.2827,0,0,0.3185,0.3144,0.3137,0.3136,0.3138,0.3181,0.3097,0.315,0.318,0.3048,0.3078,0.3047,0.2988,0.3042,0.3056,0.2992,0.3157,0.3072,0.309,0.3097,0.3173,0.3209,0.3241,0.2834,0.2833,0.2832,0,0,0.3308,0.3259,0.3286,0.3298,0.3309,0.3284,0.3306,0.3297,0.3291,0.3326,0.3246,0.3272,0.3236,0.3232,0.3216,0.3371,0.3294,0.3359,0.3494,0.3574,0.3605,0.3632,0.3664,0.3692,0.336,0.3361,0.3361,0,0.3392,0.3386,0.3327,0.3374,0.3383,0.3333,0.3393,0.3407,0.3402,0.3406,0.3365,0.3372,0.3336,0.3401,0.3462,0.343,0.344,0.3384,0.3608,0.3634,0.3658,0.3684,0.3712,0.3373,0.3371,0.337,0.3369,0,0.3519,0.3523,0.3567,0.3554,0.3579,0.3635,0.3622,0.365,0.3615,0.3604,0.3668,0.3647,0.3635,0.3656,0.3606,0.3755,0.3698,0.3641,0.3536,0.3709,0.3725,0.375,0.339,0.3386,0.3382,0.3379,0,0,0.3675,0.3645,0.3659,0.365,0.3659,0.3688,0.3755,0.3783,0.3811,0.3839,0.3889,0.3941,0.3912,0.3898,0.3861,0.3947,0.4139,0.388,0.3879,0.3917,0.4298,0.4116,0.4123,0.4126,0.4132,0.4136,0.4245,0,0.3789,0.3847,0.3812,0.3883,0.3902,0.3867,0.3914,0.3937,0.3949,0.3998,0.4015,0.4054,0.4007,0.4018,0.411,0.4116,0.4214,0.4113,0.412,0.412,0.3941,0.415,0.389,0.3953,0.4268,0.4272,0.4275,0,0.3904,0.3909,0.3968,0.3953,0.3966,0.4003,0.4025,0.4069,0.4126,0.4141,0.4202,0.4197,0.4309,0.4254,0.4392,0.4327,0.4353,0.4369,0.4372,0.4136,0.3984,0.3829,0.3985,0.3867,0.4312,0.4309,0.4306,0,0.3955,0.401,0.4024,0.4031,0.4034,0.4056,0.4062,0.4106,0.4126,0.4237,0.4259,0.4377,0.44,0.4504,0.4505,0.4479,0.4644,0.459,0.4458,0.4442,0.4186,0.4137,0.4226,0.4745,0.4744,0.4744,0.4744,0,0.4032,0.4056,0.4042,0.405,0.4082,0.4083,0.4124,0.4161,0.4211,0.4239,0.4321,0.4364,0.4473,0.4538,0.4582,0.4574,0.4697,0.4531,0.4486,0.4255,0.4214,0.4063,0.4015,0.4748,0.4747,0.4746,0.4746,0,0.4066,0.4058,0.4079,0.4089,0.4089,0.4111,0.4112,0.4141,0.4194,0.4243,0.4276,0.4373,0.4457,0.4527,0.4665,0.4607,0.4516,0.4627,0.4319,0.4236,0.3969,0.3941,0.389,0.3788,0.4527,0.4523,0.452,0,0.4068,0.4077,0.4085,0.4076,0.4075,0.4089,0.4081,0.4127,0.4148,0.4222,0.4243,0.4341,0.4375,0.4469,0.443,0.4466,0.4394,0.422,0.4135,0.3965,0.3905,0.3828,0.3743,0.3899,0.3891,0.3885,0.388,0,0.408,0.408,0.4081,0.4052,0.4048,0.4036,0.4036,0.4049,0.4091,0.4116,0.415,0.4194,0.4233,0.4123,0.412,0.4114,0.3982,0.4086,0.402,0.3529,0.3347,0.3216,0.3796,0.3823,0.3829,0.3833,0.3836,0.3838,0.4074,0.4067,0.4039,0.4001,0.3989,0.3944,0.3883,0.3895,0.3882,0.3832,0.3986,0.3918,0.3846,0.3794,0.3766,0.3486,0.3602,0.3346,0.3364,0.3332,0.3125,0.3555,0.345,0.3453,0.3456,0.3459,0.3461,0,0.4031,0.4003,0.3971,0.3902,0.3823,0.3843,0.3798,0.3686,0.3601,0.3624,0.36,0.3429,0.3276,0.3209,0.2943,0.2782,0.2724,0.2704,0.2568,0.2551,0.3019,0.2878,0.2508,0.2508,0.2508,0.2509,0.2509,0.2509,0.4015,0.3945,0.3897,0.3726,0.3658,0.3464,0.3397,0.3277,0.3227,0.3017,0.2865,0.2858,0.2815,0.262,0.2361,0.2301,0.2185,0.2031,0.215,0.2482,0.2544,0.2604,0.2464,0.2013,0.2013,0.1541,0.1537,0.1534]},{"header":{"parameterUnit":"m.s-1","parameterCategory":2,"la1":30.2991,"la2":30.254,"lo1":-89.0895,"lo2":-89.0444,"dy":0.0017,"dx":0.0017,"nx":28,"ny":28,"refTime":"2025-01-24T09:00:00:Z","depth":"0","parameterNumber":3,"parameterNumberName":"V-component_of_CURRENTS"},"data":[0,0,0,0,0,0,0,0,0,0,0,0,0,0,0,0,0,0,0,0,0,0,0,0,0,0,0,0,0,0,0,0,0,0,0,0,0,0,0,0,0,0,0,0,0,0,0,0,0,0,0,0,0,0,0,0,0,0,-0.0394,-0.0394,0,-0.0401,-0.0401,-0.0401,-0.0373,-0.0372,-0.0371,-0.0371,-0.036,-0.036,-0.0361,0,0,0,0,0,0,0,0,0,0,0,0,0,-0.0402,-0.0402,-0.0394,-0.0394,-0.0395,-0.0401,-0.0401,-0.0401,-0.0373,-0.0372,-0.0371,-0.037,-0.036,-0.036,-0.0361,0,0,0,0,0,0,0,0,0,0,0,0,0,-0.0402,-0.0401,-0.0394,-0.0382,-0.0381,-0.0401,-0.0401,-0.0401,-0.0373,-0.0372,-0.0371,-0.037,-0.0359,-0.036,-0.0361,-0.0388,0,0,-0.0363,-0.0363,0,0,0,0,0,0,0,0,-0.0402,-0.0402,-0.0384,-0.0383,-0.0382,-0.0385,-0.0399,-0.0396,-0.0374,-0.0376,-0.0371,-0.0369,-0.0368,-0.0368,-0.0371,-0.0388,-0.0387,-0.0363,-0.0363,-0.0363,-0.0364,0,0,0,0,0,0,0,-0.0402,-0.0402,-0.0397,-0.0384,-0.0383,-0.0391,-0.0389,-0.0399,-0.0378,-0.0376,-0.0374,-0.0375,-0.0367,-0.0371,-0.0371,-0.0387,-0.0363,-0.0363,-0.0364,-0.0364,-0.0377,-0.0377,0,0,0,0,0,0,-0.0401,-0.0401,-0.0396,-0.0397,-0.0389,-0.0391,-0.0389,-0.0385,-0.0378,-0.0376,-0.0376,-0.0374,-0.037,-0.037,-0.037,-0.0374,-0.0363,-0.0364,-0.0364,-0.0377,-0.0377,-0.0377,0,0,0,0,0,0,-0.0401,-0.04,-0.0396,-0.04,-0.04,-0.0392,-0.0388,-0.0386,-0.0387,-0.0379,-0.0376,-0.0379,-0.0369,-0.0369,-0.0377,-0.0374,-0.0364,-0.0365,-0.0377,-0.0377,-0.0377,-0.04,0,0,0,0,0,0,-0.0401,-0.04,-0.0402,-0.0399,-0.04,-0.0422,-0.0389,-0.0387,-0.039,-0.0387,-0.0381,-0.0378,-0.0368,-0.0377,-0.0378,-0.0375,-0.0365,-0.0377,-0.0377,-0.0377,-0.0399,-0.04,-0.0402,0,0,0,0,0,-0.0401,-0.0421,-0.0402,-0.0402,-0.0401,-0.0424,-0.0425,-0.0415,-0.0391,-0.0408,-0.039,-0.0378,-0.0376,-0.0378,-0.038,-0.0376,-0.0377,-0.0377,-0.0377,-0.0398,-0.04,-0.0402,0,0,0,0,0,0,-0.0459,-0.042,-0.0399,-0.0414,-0.042,-0.0419,-0.044,-0.042,-0.042,-0.0416,-0.0391,-0.0389,-0.0395,-0.0385,-0.0387,-0.0377,-0.037,-0.037,-0.0385,-0.0387,-0.0388,-0.0319,-0.0366,0,0,0,0,0,-0.0463,-0.0448,-0.0435,-0.0452,-0.0455,-0.0443,-0.045,-0.0443,-0.044,-0.0438,-0.0425,-0.0408,-0.0398,-0.0392,-0.0393,-0.0396,-0.0327,-0.039,-0.0391,-0.0392,-0.0336,-0.0191,-0.0173,-0.0376,-0.0376,-0.0376,0,0,-0.0496,-0.0471,-0.0468,-0.046,-0.0463,-0.0458,-0.0446,-0.047,-0.045,-0.0439,-0.0423,-0.0425,-0.0403,-0.0403,-0.0402,-0.0391,-0.0321,-0.0392,-0.0393,-0.0334,-0.0189,-0.0168,-0.015,-0.0376,-0.0376,-0.0376,0,0,-0.0547,-0.053,-0.0526,-0.0518,-0.0514,-0.0499,-0.0502,-0.0499,-0.0486,-0.0488,-0.0457,-0.0436,-0.0451,-0.0402,-0.0385,-0.0389,-0.034,-0.0415,-0.0356,-0.0219,-0.0199,-0.0181,-0.0159,-0.0138,-0.0405,-0.0406,-0.0406,0,-0.0593,-0.055,-0.0542,-0.0532,-0.0501,-0.0509,-0.0487,-0.0495,-0.0489,-0.0431,-0.0489,-0.04,-0.043,-0.0326,-0.0359,-0.0386,-0.0335,-0.0358,-0.0215,-0.0195,-0.0175,-0.0156,-0.0132,-0.0407,-0.0406,-0.0406,-0.0406,0,-0.0616,-0.0578,-0.0589,-0.0538,-0.0526,-0.0521,-0.0502,-0.048,-0.0466,-0.0431,-0.0355,-0.0379,-0.0292,-0.0335,-0.0371,-0.0242,-0.0267,-0.0242,-0.0204,-0.0155,-0.0141,-0.0116,-0.0408,-0.0408,-0.0407,-0.0407,0,0,-0.0701,-0.0611,-0.0605,-0.0522,-0.0503,-0.047,-0.0446,-0.036,-0.0243,-0.0296,-0.0129,-0.0197,-0.0171,-0.0147,-0.0167,-0.0091,-0.0009,-0.0127,-0.012,-0.0094,0.0225,0.0102,0.0116,0.0052,0.0058,0.0063,0.0146,0,-0.0702,-0.0618,-0.0588,-0.0489,-0.0421,-0.0378,-0.0308,-0.0238,-0.0185,-0.0047,-0.0043,0.0054,-0.011,-0.0056,-0.0015,0.0027,0.0073,-0.0038,0.0168,0.0172,0.0071,0.0149,0.0096,0.0161,0.0171,0.0175,0.0178,0,-0.0692,-0.0613,-0.0506,-0.0318,-0.0286,-0.0233,-0.0017,0.0029,0.0182,0.0227,0.0309,0.0325,0.0389,0.0263,0.0349,0.0287,0.0248,0.025,0.0255,0.0193,0.0102,0.0134,0.0208,0.0087,0.0218,0.0215,0.0212,0,-0.063,-0.0523,-0.0394,-0.035,-0.0193,-0.0097,-0.0014,0.0141,0.026,0.0424,0.0539,0.0613,0.0673,0.0678,0.0548,0.0494,0.0657,0.0604,0.0456,0.0442,0.0471,0.0449,0.0484,0.0713,0.0713,0.0713,0.0712,0,-0.0569,-0.0456,-0.0337,-0.0256,-0.0043,0.0007,0.0242,0.0339,0.0517,0.0688,0.0685,0.0822,0.0789,0.0829,0.0703,0.0632,0.0773,0.0505,0.0499,0.0441,0.0418,0.0373,0.0295,0.0716,0.0715,0.0714,0.0714,0,-0.0473,-0.0422,-0.0235,-0.0062,0.0004,0.0164,0.0381,0.0554,0.0667,0.0896,0.0949,0.1039,0.1054,0.0979,0.1,0.083,0.0707,0.0723,0.0578,0.0553,0.027,0.0191,0.0253,0.0213,0.0613,0.0611,0.061,0,-0.0396,-0.0299,-0.0081,0.0046,0.0137,0.0344,0.0501,0.0632,0.0784,0.0999,0.1121,0.1207,0.1235,0.1176,0.0966,0.0797,0.0671,0.0607,0.0499,0.0283,0.0196,0.0135,0.0094,0.0487,0.0485,0.0483,0.0481,0,-0.0223,-0.0153,0.0009,0.0237,0.0413,0.0598,0.079,0.0914,0.1051,0.1201,0.134,0.1382,0.1298,0.1117,0.0875,0.0726,0.05,0.0555,0.0453,0.0209,0.0043,-0.001,0.0308,0.0463,0.0465,0.0466,0.0467,0.0468,-0.0061,0.0078,0.0256,0.047,0.0648,0.0792,0.0908,0.1064,0.1236,0.1393,0.1441,0.1509,0.1256,0.0919,0.0716,0.0318,0.0351,0.0174,0.0123,0.0101,0.0003,0.02,0.0267,0.0267,0.0268,0.0268,0.0269,0,0.013,0.025,0.0468,0.0681,0.0829,0.0881,0.1068,0.1132,0.1249,0.1436,0.1508,0.1422,0.1087,0.077,0.0226,-0.0052,-0.012,-0.0187,-0.0237,-0.0236,0.0066,-0.0004,-0.0137,-0.0137,-0.0137,-0.0137,-0.0136,-0.0136,0.0253,0.0454,0.0522,0.0761,0.0882,0.0999,0.1057,0.1147,0.1276,0.1398,0.1464,0.1499,0.1227,0.034,-0.0249,-0.0374,-0.0506,-0.0588,-0.0609,-0.0403,-0.0372,-0.0342,-0.0422,-0.0641,-0.0642,-0.0881,-0.0884,-0.0886]}],[{"header":{"parameterUnit":"m.s-1","parameterCategory":2,"la1":30.2991,"la2":30.254,"lo1":-89.0895,"lo2":-89.0444,"dy":0.0017,"dx":0.0017,"nx":28,"ny":28,"refTime":"2025-01-24T09:00:00:Z","depth":"2","parameterNumber":2,"parameterNumberName":"U-component_of_CURRENTS"},"data":[0,0,0,0,0,0,0,0,0,0,0,0,0,0,0,0,0,0,0,0,0,0,0,0,0,0,0,0,0,0,0,0,0,0,0,0,0,0,0,0,0,0,0,0,0,0,0,0,0,0,0,0,0,0,0,0,0,0,0.1864,0.1864,0,0.1875,0.1876,0.1876,0.1912,0.1913,0.1913,0.1914,0.1929,0.1929,0.1928,0,0,0,0,0,0,0,0,0,0,0,0,0,0.185,0.185,0.1864,0.1864,0.1864,0.1875,0.1876,0.1876,0.1912,0.1913,0.1914,0.1914,0.1929,0.1929,0.1928,0,0,0,0,0,0,0,0,0,0,0,0,0,0.1859,0.185,0.1864,0.1882,0.1884,0.1875,0.1876,0.1876,0.1912,0.1913,0.1914,0.1915,0.1929,0.1929,0.1928,0.1904,0,0,0.1927,0.1927,0,0,0,0,0,0,0,0,0.1858,0.1859,0.188,0.1881,0.1883,0.1893,0.1876,0.1885,0.1911,0.1902,0.1914,0.1915,0.1916,0.1916,0.1917,0.1905,0.1905,0.1927,0.1927,0.1927,0.1926,0,0,0,0,0,0,0,0.1858,0.1859,0.1869,0.188,0.1882,0.1883,0.1885,0.1878,0.1903,0.1903,0.1905,0.1905,0.1917,0.1918,0.1918,0.1906,0.1927,0.1927,0.1926,0.1926,0.2072,0.2076,0,0,0,0,0,0,0.1855,0.1858,0.1869,0.1869,0.1872,0.1882,0.1885,0.1889,0.1903,0.1906,0.1904,0.1907,0.1918,0.1918,0.1919,0.2031,0.1927,0.1926,0.1926,0.2068,0.2073,0.2077,0,0,0,0,0,0,0.1854,0.1855,0.1868,0.1863,0.1865,0.1881,0.1885,0.1889,0.1887,0.1904,0.1908,0.1899,0.1919,0.1919,0.197,0.2026,0.1926,0.1926,0.2063,0.2069,0.2075,0.2165,0,0,0,0,0,0,0.1854,0.1855,0.1868,0.1863,0.1865,0.187,0.1884,0.1888,0.1885,0.1889,0.19,0.1903,0.192,0.1971,0.1969,0.2024,0.1925,0.2058,0.2066,0.2073,0.2157,0.2173,0.2187,0,0,0,0,0,0.1853,0.1837,0.1869,0.187,0.1878,0.187,0.1871,0.1887,0.1884,0.1888,0.1935,0.1903,0.202,0.1973,0.1971,0.2026,0.2054,0.2064,0.2073,0.215,0.217,0.2187,0,0,0,0,0,0,0.1819,0.184,0.1873,0.1863,0.1881,0.1876,0.1873,0.1877,0.1909,0.1927,0.1933,0.1941,0.2013,0.2008,0.1956,0.21,0.2039,0.2048,0.2099,0.2118,0.2133,0.2307,0.1925,0,0,0,0,0,0.1825,0.1849,0.1853,0.1864,0.1856,0.1867,0.1866,0.1885,0.1905,0.1919,0.1944,0.1992,0.2047,0.2071,0.2111,0.2161,0.2186,0.2207,0.2223,0.2235,0.2383,0.2404,0.2434,0.2108,0.2108,0.2107,0,0,0.1834,0.184,0.1864,0.1865,0.1873,0.1926,0.1868,0.1874,0.197,0.1915,0.2038,0.203,0.2073,0.2165,0.2196,0.2167,0.2331,0.2247,0.2257,0.2402,0.2417,0.2449,0.2477,0.2114,0.2113,0.2112,0,0,0.1871,0.1846,0.1896,0.1906,0.1926,0.1945,0.1944,0.1957,0.2004,0.2113,0.211,0.215,0.2232,0.2278,0.2313,0.2432,0.2404,0.2428,0.265,0.2663,0.2691,0.2716,0.2731,0.2757,0.2441,0.2441,0.2441,0,0.1886,0.1965,0.1906,0.1951,0.2001,0.1961,0.205,0.2085,0.2141,0.2217,0.2189,0.2363,0.2318,0.2478,0.2545,0.2467,0.2496,0.2553,0.2683,0.2708,0.2732,0.2743,0.277,0.2446,0.2446,0.2445,0.2445,0,0.1986,0.2055,0.2061,0.2157,0.2173,0.223,0.2269,0.2332,0.2386,0.245,0.2612,0.2599,0.2708,0.2677,0.267,0.2828,0.2795,0.2677,0.2627,0.277,0.2771,0.2798,0.2454,0.2452,0.245,0.2449,0,0,0.2073,0.2135,0.2159,0.2261,0.2301,0.2343,0.2479,0.2619,0.2713,0.2825,0.2993,0.3093,0.3064,0.3112,0.3043,0.3104,0.3203,0.3017,0.3015,0.3027,0.3283,0.303,0.3033,0.3107,0.3114,0.3119,0.3192,0,0.2221,0.2357,0.2358,0.2563,0.2654,0.2667,0.277,0.2877,0.2954,0.3078,0.316,0.3251,0.3226,0.3232,0.3312,0.3215,0.3296,0.32,0.316,0.3162,0.291,0.3063,0.2847,0.2878,0.3217,0.3222,0.3225,0,0.2392,0.2468,0.2642,0.2797,0.2827,0.2919,0.3087,0.3183,0.3308,0.3354,0.3513,0.3513,0.3664,0.3552,0.3654,0.3604,0.3534,0.3476,0.3471,0.3267,0.2963,0.2806,0.2913,0.3269,0.3266,0.3262,0.326,0,0.2542,0.2715,0.287,0.2919,0.3026,0.3128,0.3203,0.3288,0.3361,0.3522,0.3572,0.3746,0.3779,0.3829,0.3722,0.3704,0.3784,0.3656,0.341,0.3387,0.3227,0.3179,0.379,0.379,0.379,0.379,0.379,0,0.2727,0.2878,0.2951,0.3032,0.3197,0.3241,0.3385,0.3455,0.3538,0.3585,0.3708,0.3758,0.3863,0.3881,0.3823,0.3703,0.3835,0.3562,0.3427,0.3239,0.3194,0.356,0.3532,0.3792,0.3792,0.3791,0.3791,0,0.286,0.2915,0.3094,0.3217,0.3257,0.3368,0.3455,0.351,0.3595,0.3663,0.372,0.3824,0.3819,0.3858,0.384,0.3741,0.3656,0.3564,0.3345,0.3185,0.3254,0.3231,0.3381,0.3374,0.3367,0.3362,0.3358,0,0.2944,0.3032,0.3172,0.3218,0.3273,0.3408,0.3422,0.3523,0.3525,0.3638,0.3631,0.3727,0.3644,0.3584,0.3484,0.3382,0.3479,0.3088,0.3014,0.338,0.3232,0.3218,0.3204,0.2828,0.2819,0.2813,0.2807,0,0.3067,0.3082,0.3168,0.3218,0.3276,0.3326,0.3366,0.3362,0.3408,0.3431,0.3353,0.3327,0.3316,0.3099,0.3015,0.2926,0.3096,0.2935,0.3407,0.2917,0.285,0.2705,0.2712,0.2746,0.2752,0.2756,0.276,0.2762,0.3106,0.3134,0.3154,0.3177,0.3215,0.3124,0.3079,0.3062,0.2992,0.2894,0.298,0.2836,0.2872,0.2593,0.2473,0.2444,0.2649,0.2546,0.2573,0.2606,0.2482,0.2401,0.2194,0.2196,0.2199,0.2201,0.2203,0,0.3121,0.3074,0.309,0.3027,0.2932,0.3017,0.2916,0.2767,0.2552,0.2549,0.2432,0.2159,0.2022,0.2093,0.1941,0.1888,0.1947,0.182,0.1914,0.1975,0.2029,0.1881,0.1431,0.1428,0.1426,0.1423,0,0,0.3111,0.3048,0.2962,0.27,0.2663,0.2461,0.2357,0.2177,0.2094,0.1857,0.1786,0.1882,0.1982,0.1659,0.163,0.1508,0.1733,0.145,0.2076,0.2248,0.2299,0.2457,0.2295,0,0,0,0,0]},{"header":{"parameterUnit":"m.s-1","parameterCategory":2,"la1":30.2991,"la2":30.254,"lo1":-89.0895,"lo2":-89.0444,"dy":0.0017,"dx":0.0017,"nx":28,"ny":28,"refTime":"2025-01-24T09:00:00:Z","depth":"2","parameterNumber":3,"parameterNumberName":"V-component_of_CURRENTS"},"data":[0,0,0,0,0,0,0,0,0,0,0,0,0,0,0,0,0,0,0,0,0,0,0,0,0,0,0,0,0,0,0,0,0,0,0,0,0,0,0,0,0,0,0,0,0,0,0,0,0,0,0,0,0,0,0,0,0,0,0.0234,0.0234,0,0.0193,0.0193,0.0192,0.0142,0.0142,0.0141,0.0141,0.0089,0.0088,0.0087,0,0,0,0,0,0,0,0,0,0,0,0,0,0.0202,0.0203,0.0234,0.0234,0.0234,0.0193,0.0193,0.0192,0.0142,0.0142,0.0141,0.0141,0.0089,0.0088,0.0087,0,0,0,0,0,0,0,0,0,0,0,0,0,0.0191,0.0203,0.0234,0.0207,0.0204,0.0194,0.0192,0.0191,0.0143,0.0142,0.0141,0.014,0.009,0.0088,0.0087,0.0093,0,0,0.0083,0.0082,0,0,0,0,0,0,0,0,0.0192,0.0192,0.0211,0.0209,0.0206,0.0175,0.0162,0.0159,0.0143,0.0163,0.0141,0.014,0.012,0.0116,0.0105,0.009,0.0088,0.0083,0.0082,0.0081,0.0081,0,0,0,0,0,0,0,0.0193,0.0193,0.0215,0.0211,0.0208,0.0173,0.0171,0.0161,0.0143,0.0161,0.0158,0.0159,0.0117,0.0107,0.0104,0.0087,0.0083,0.0082,0.0081,0.008,0.0048,0.0048,0,0,0,0,0,0,0.0209,0.0194,0.0216,0.0214,0.02,0.0175,0.0172,0.0183,0.0143,0.0137,0.0159,0.0157,0.0109,0.0105,0.0102,0.0149,0.0081,0.008,0.0079,0.0048,0.0048,0.0048,0,0,0,0,0,0,0.0208,0.0212,0.0218,0.0205,0.0204,0.0177,0.0189,0.0183,0.0184,0.0143,0.0136,0.0168,0.0109,0.0104,0.0092,0.0145,0.0079,0.0078,0.0048,0.0048,0.0048,0.0216,0,0,0,0,0,0,0.0208,0.0212,0.0221,0.0207,0.0205,0.0234,0.019,0.0182,0.0186,0.0182,0.0148,0.0142,0.0108,0.0094,0.009,0.0142,0.0077,0.0048,0.0048,0.0048,0.021,0.0222,0.0231,0,0,0,0,0,0.0207,0.0243,0.0222,0.0224,0.022,0.0236,0.0233,0.0208,0.0188,0.0203,0.0162,0.0143,0.0091,0.0093,0.0089,0.0141,0.0048,0.0048,0.0048,0.0206,0.0219,0.0231,0,0,0,0,0,0,0.0249,0.024,0.0217,0.0251,0.0248,0.023,0.0242,0.0223,0.0204,0.0192,0.015,0.0141,0.0143,0.0108,0.0112,0.0122,0.0065,0.0064,0.0186,0.0198,0.0208,0.027,0.0076,0,0,0,0,0,0.0258,0.0269,0.0261,0.0285,0.029,0.0265,0.0267,0.0248,0.0231,0.0221,0.0194,0.0157,0.0138,0.0142,0.0104,0.0129,0.0083,0.015,0.0161,0.0171,0.0212,0.0148,0.0158,0.0048,0.0048,0.0048,0,0,0.0268,0.0276,0.0273,0.0292,0.0284,0.0318,0.0265,0.0278,0.0313,0.022,0.0249,0.0189,0.0143,0.0155,0.0156,0.0142,0.0177,0.0171,0.018,0.0217,0.0149,0.0161,0.017,0.0048,0.0048,0.0048,0,0,0.0323,0.0317,0.0346,0.0356,0.0361,0.0357,0.037,0.0356,0.0359,0.0367,0.0304,0.028,0.0254,0.024,0.023,0.0276,0.0218,0.0254,0.0389,0.0327,0.0337,0.0345,0.0311,0.0314,0.028,0.0281,0.0281,0,0.0344,0.0383,0.0359,0.0406,0.0433,0.0389,0.0445,0.0449,0.0429,0.0457,0.0395,0.0355,0.0304,0.0352,0.036,0.0311,0.0264,0.0357,0.0346,0.0353,0.0358,0.0321,0.0323,0.0289,0.0288,0.0287,0.0286,0,0.0422,0.0452,0.0483,0.0525,0.0553,0.059,0.0601,0.0627,0.0613,0.061,0.0627,0.0536,0.0519,0.0495,0.0451,0.0482,0.0432,0.0354,0.033,0.0381,0.0336,0.0336,0.03,0.0297,0.0295,0.0293,0,0,0.048,0.0527,0.0536,0.059,0.062,0.0671,0.074,0.0811,0.087,0.0829,0.089,0.0844,0.0775,0.0755,0.0676,0.0643,0.063,0.0537,0.053,0.0535,0.0512,0.0436,0.0427,0.0543,0.0544,0.0544,0.0471,0,0.0553,0.0666,0.0667,0.0788,0.0856,0.0861,0.0938,0.0991,0.0996,0.1032,0.0977,0.0964,0.0882,0.0842,0.0809,0.0654,0.0633,0.0659,0.0437,0.0432,0.0382,0.0425,0.0442,0.0374,0.047,0.0469,0.0469,0,0.0634,0.0709,0.0828,0.0949,0.0981,0.1039,0.1171,0.1222,0.1262,0.1253,0.1244,0.1164,0.1133,0.1003,0.0859,0.0873,0.0729,0.0613,0.0604,0.0483,0.0354,0.0331,0.0368,0.0467,0.0467,0.0467,0.0467,0,0.0716,0.0834,0.0943,0.0979,0.1092,0.1164,0.1222,0.129,0.1325,0.1361,0.1348,0.1319,0.124,0.1097,0.0872,0.0852,0.0678,0.0602,0.0422,0.0414,0.0364,0.0351,0.0507,0.0507,0.0507,0.0508,0.0508,0,0.0813,0.0905,0.0988,0.1052,0.1209,0.1245,0.1353,0.1427,0.1429,0.1464,0.1434,0.1412,0.1247,0.1121,0.0931,0.0686,0.0718,0.0475,0.0396,0.0419,0.0413,0.0433,0.0425,0.0505,0.0505,0.0506,0.0506,0,0.0888,0.0926,0.1075,0.1204,0.1242,0.1357,0.1403,0.1453,0.1466,0.1489,0.1486,0.1455,0.1314,0.1145,0.0899,0.0732,0.0513,0.0412,0.0473,0.0402,0.0288,0.0289,0.0232,0.0229,0.0226,0.0224,0.0222,0,0.0948,0.1013,0.1176,0.1236,0.1288,0.1392,0.1434,0.1475,0.1487,0.15,0.1508,0.1418,0.1337,0.1005,0.075,0.0465,0.0442,0.0274,0.0238,0.0334,0.0262,0.0268,0.0273,0.0242,0.0241,0.024,0.0239,0,0.106,0.1092,0.1197,0.1287,0.1362,0.1454,0.1502,0.1513,0.1535,0.1539,0.1515,0.1449,0.1199,0.0933,0.0589,0.04,0.0331,0.0234,0.0312,0.0299,0.0334,0.0266,0.0273,0.0227,0.0228,0.0229,0.023,0.023,0.1128,0.1186,0.1245,0.1341,0.1417,0.1473,0.1511,0.1526,0.1545,0.1532,0.1495,0.1393,0.1168,0.0709,0.0434,0.0192,0.0203,0.0094,0.0102,0.0111,0.0115,0.0142,0.0002,0.0002,0.0002,0.0002,0.0001,0,0.1146,0.1164,0.1262,0.1349,0.1388,0.1444,0.1514,0.151,0.1515,0.1518,0.1459,0.1189,0.0915,0.0672,0.0286,0.0028,0.0053,-0.0039,0.0052,0.0065,0.0075,0.0082,-0.0043,-0.0044,-0.0045,-0.0045,0,0,0.1153,0.118,0.1206,0.1268,0.1311,0.1351,0.1391,0.1436,0.1449,0.1394,0.1336,0.1264,0.0967,0.0674,0.0373,0.0158,0.0165,0.012,0.018,0.0334,0.0347,0.0173,0.0198,0,0,0,0,0]}],[{"header":{"parameterUnit":"m.s-1","parameterCategory":2,"la1":30.2991,"la2":30.254,"lo1":-89.0895,"lo2":-89.0444,"dy":0.0017,"dx":0.0017,"nx":28,"ny":28,"refTime":"2025-01-24T09:00:00:Z","depth":"4","parameterNumber":2,"parameterNumberName":"U-component_of_CURRENTS"},"data":[0,0,0,0,0,0,0,0,0,0,0,0,0,0,0,0,0,0,0,0,0,0,0,0,0,0,0,0,0,0,0,0,0,0,0,0,0,0,0,0,0,0,0,0,0,0,0,0,0,0,0,0,0,0,0,0,0,0,0.0883,0.0883,0,0.0921,0.0922,0.0922,0.0989,0.0991,0.0992,0.0993,0.1083,0.1084,0.1085,0,0,0,0,0,0,0,0,0,0,0,0,0,0.0811,0.0812,0.0883,0.0883,0.0884,0.0921,0.0922,0.0922,0.0989,0.0991,0.0992,0.0994,0.1083,0.1084,0.1085,0,0,0,0,0,0,0,0,0,0,0,0,0,0.0844,0.0813,0.0882,0.0922,0.0926,0.0921,0.0922,0.0922,0.0989,0.0991,0.0993,0.0995,0.1082,0.1084,0.1086,0.1055,0,0,0.1091,0.1092,0,0,0,0,0,0,0,0,0.0842,0.0847,0.0916,0.092,0.0924,0.0953,0.0929,0.097,0.0988,0.0964,0.0993,0.0996,0.1044,0.1049,0.1049,0.106,0.1064,0.1091,0.1092,0.1093,0.1093,0,0,0,0,0,0,0,0.084,0.0845,0.0897,0.0916,0.0921,0.0919,0.0927,0.0937,0.0992,0.0966,0.0972,0.0977,0.1046,0.1047,0.1052,0.1065,0.1091,0.1092,0.1093,0.1094,0.1177,0.1178,0,0,0,0,0,0,0.0838,0.0843,0.0896,0.0898,0.0888,0.0919,0.0927,0.0941,0.0991,0.1001,0.0975,0.098,0.1044,0.105,0.1056,0.1136,0.1093,0.1094,0.1095,0.1176,0.1177,0.1178,0,0,0,0,0,0,0.0836,0.0842,0.0894,0.0872,0.0878,0.0919,0.0933,0.0941,0.0962,0.0997,0.1008,0.0991,0.1045,0.1053,0.1081,0.1136,0.1095,0.1097,0.1174,0.1176,0.1178,0.1224,0,0,0,0,0,0,0.0834,0.0842,0.0853,0.0872,0.088,0.0896,0.0932,0.094,0.0961,0.0968,0.1014,0.1023,0.1048,0.1078,0.1083,0.1137,0.1098,0.1173,0.1175,0.1177,0.1221,0.1227,0.1232,0,0,0,0,0,0.0832,0.0827,0.0854,0.086,0.0894,0.0895,0.0898,0.0933,0.096,0.0961,0.1,0.1023,0.1097,0.1079,0.1084,0.1141,0.1172,0.1174,0.1177,0.1218,0.1226,0.1232,0,0,0,0,0,0,0.0789,0.0834,0.0864,0.0872,0.0889,0.0907,0.0911,0.0934,0.0962,0.0983,0.1017,0.1028,0.1084,0.1089,0.1069,0.1171,0.1146,0.115,0.1176,0.1183,0.1189,0.1212,0.1099,0,0,0,0,0,0.0788,0.0811,0.084,0.0849,0.0857,0.0887,0.0895,0.0923,0.0948,0.0963,0.0992,0.1037,0.1092,0.1117,0.1149,0.1182,0.1204,0.1228,0.1234,0.1239,0.1261,0.1358,0.1376,0.1187,0.1187,0.1187,0,0,0.0782,0.0803,0.0822,0.0844,0.0863,0.0878,0.0897,0.0914,0.0948,0.0967,0.1012,0.105,0.1103,0.1161,0.1187,0.1176,0.129,0.1242,0.1246,0.1266,0.1363,0.1382,0.1399,0.1189,0.1188,0.1188,0,0,0.0764,0.0792,0.0807,0.0824,0.0854,0.0872,0.0879,0.0906,0.0942,0.0974,0.1027,0.1095,0.113,0.1207,0.1247,0.1297,0.1316,0.1305,0.1358,0.1453,0.147,0.1485,0.1479,0.1494,0.1311,0.1311,0.1311,0,0.0747,0.0781,0.0805,0.0818,0.085,0.0871,0.09,0.0922,0.0959,0.1012,0.0996,0.1132,0.1168,0.1298,0.1324,0.1318,0.1334,0.1329,0.1463,0.1479,0.1494,0.1485,0.1501,0.1313,0.1313,0.1313,0.1313,0,0.0751,0.0779,0.078,0.0825,0.0855,0.0872,0.0922,0.0957,0.0997,0.1043,0.1157,0.1203,0.1307,0.1324,0.134,0.1482,0.1441,0.1458,0.1449,0.1517,0.1501,0.1517,0.1317,0.1316,0.1315,0.1315,0,0,0.0698,0.0772,0.0773,0.0825,0.0872,0.0904,0.0963,0.1045,0.1127,0.1158,0.1252,0.1366,0.1415,0.1465,0.1506,0.1573,0.1672,0.156,0.1564,0.1558,0.1813,0.1638,0.1637,0.1719,0.1723,0.1727,0.1737,0,0.0692,0.0735,0.0783,0.0851,0.0887,0.0959,0.103,0.1119,0.1184,0.1259,0.1343,0.1447,0.1463,0.1533,0.1608,0.1669,0.1725,0.1662,0.1746,0.1746,0.1589,0.1656,0.1741,0.1749,0.1753,0.1755,0.1757,0,0.0679,0.0719,0.0791,0.092,0.0949,0.1005,0.1166,0.124,0.1357,0.1418,0.1529,0.1566,0.1696,0.1672,0.1835,0.1794,0.182,0.1833,0.1835,0.1678,0.1604,0.1682,0.1786,0.1784,0.1781,0.1779,0.1778,0,0.0651,0.073,0.0807,0.0843,0.0978,0.1064,0.1153,0.1301,0.1403,0.1533,0.1589,0.1728,0.1796,0.1883,0.1905,0.1903,0.2002,0.2011,0.1865,0.1848,0.1981,0.1965,0.2125,0.2125,0.2125,0.2125,0.2125,0,0.0625,0.0681,0.081,0.0854,0.0989,0.1096,0.1264,0.1368,0.1511,0.1619,0.1693,0.1753,0.1861,0.1898,0.1927,0.1919,0.2046,0.1884,0.1867,0.1987,0.1972,0.1988,0.1972,0.2125,0.2125,0.2125,0.2125,0,0.0581,0.0652,0.075,0.091,0.0983,0.109,0.1316,0.1405,0.1571,0.169,0.1733,0.1813,0.1874,0.1901,0.1994,0.1938,0.1953,0.1912,0.1967,0.195,0.1722,0.1709,0.1784,0.1778,0.1774,0.177,0.1766,0,0.0558,0.0606,0.0789,0.0862,0.0942,0.112,0.1221,0.1419,0.1505,0.1708,0.1716,0.1802,0.1833,0.1789,0.185,0.1856,0.1842,0.1809,0.1839,0.1726,0.1702,0.1695,0.1688,0.1759,0.1758,0.1757,0.1755,0,0.0523,0.0598,0.0697,0.0837,0.095,0.1081,0.1237,0.1299,0.1504,0.1639,0.1685,0.1691,0.17,0.1708,0.1687,0.1704,0.1821,0.1761,0.1773,0.18,0.1697,0.1676,0.1674,0.1739,0.1742,0.1743,0.1744,0,0.0504,0.057,0.0699,0.0832,0.0946,0.1013,0.1107,0.1205,0.1328,0.1536,0.1535,0.1605,0.1689,0.1626,0.1625,0.1601,0.1609,0.1568,0.159,0.1608,0.1543,0.1385,0.1333,0,0,0,0,0,0.048,0.0573,0.068,0.0816,0.0901,0.0972,0.1105,0.1183,0.1353,0.1349,0.1467,0.1474,0.1475,0.149,0.1435,0.1538,0.1598,0.1464,0.1559,0.165,0.1668,0.1606,0,0,0,0,0,0,0.0469,0.0581,0.067,0.0764,0.0837,0.092,0.0988,0.1081,0.1105,0.1269,0.1264,0.139,0.139,0.1505,0.1414,0.1422,0.145,0.1523,0.1519,0.1639,0.1656,0.1671,0.1613,0,0,0,0,0]},{"header":{"parameterUnit":"m.s-1","parameterCategory":2,"la1":30.2991,"la2":30.254,"lo1":-89.0895,"lo2":-89.0444,"dy":0.0017,"dx":0.0017,"nx":28,"ny":28,"refTime":"2025-01-24T09:00:00:Z","depth":"4","parameterNumber":3,"parameterNumberName":"V-component_of_CURRENTS"},"data":[0,0,0,0,0,0,0,0,0,0,0,0,0,0,0,0,0,0,0,0,0,0,0,0,0,0,0,0,0,0,0,0,0,0,0,0,0,0,0,0,0,0,0,0,0,0,0,0,0,0,0,0,0,0,0,0,0,0,0.0261,0.0261,0,0.0246,0.0246,0.0246,0.0221,0.0221,0.022,0.022,0.0194,0.0193,0.0193,0,0,0,0,0,0,0,0,0,0,0,0,0,0.0245,0.0245,0.0261,0.0261,0.0261,0.0246,0.0246,0.0246,0.0221,0.0221,0.022,0.022,0.0194,0.0193,0.0193,0,0,0,0,0,0,0,0,0,0,0,0,0,0.0242,0.0245,0.0261,0.0248,0.0246,0.0246,0.0246,0.0245,0.0221,0.0221,0.022,0.0219,0.0194,0.0193,0.0193,0.02,0,0,0.0191,0.0191,0,0,0,0,0,0,0,0,0.0242,0.0243,0.025,0.0249,0.0247,0.0236,0.023,0.023,0.0221,0.023,0.022,0.0219,0.0208,0.0206,0.0203,0.0199,0.0198,0.0191,0.0191,0.019,0.019,0,0,0,0,0,0,0,0.0243,0.0243,0.0254,0.025,0.0248,0.0234,0.0233,0.023,0.0221,0.0229,0.0227,0.0227,0.0207,0.0204,0.0202,0.0198,0.0191,0.0191,0.019,0.019,0.0191,0.0192,0,0,0,0,0,0,0.0248,0.0244,0.0255,0.0254,0.0244,0.0235,0.0234,0.0239,0.0221,0.0218,0.0228,0.0226,0.0205,0.0203,0.0201,0.0214,0.019,0.019,0.019,0.0191,0.0191,0.0192,0,0,0,0,0,0,0.0248,0.025,0.0255,0.0249,0.0248,0.0236,0.0242,0.0239,0.0242,0.0221,0.0217,0.0234,0.0204,0.0202,0.0208,0.0212,0.019,0.0189,0.019,0.0191,0.0191,0.0235,0,0,0,0,0,0,0.0248,0.025,0.0261,0.0249,0.0249,0.0266,0.0242,0.0239,0.0243,0.0241,0.0225,0.0222,0.0204,0.0209,0.0208,0.0211,0.0189,0.019,0.0191,0.0191,0.0233,0.0237,0.0241,0,0,0,0,0,0.0248,0.0264,0.0261,0.0263,0.0263,0.0267,0.0266,0.0254,0.0244,0.0253,0.0241,0.0222,0.0212,0.021,0.0208,0.0211,0.019,0.0191,0.0191,0.0232,0.0236,0.024,0,0,0,0,0,0,0.0271,0.0263,0.026,0.0276,0.0277,0.0264,0.0274,0.0263,0.0261,0.0259,0.0235,0.0232,0.0236,0.0221,0.0219,0.0212,0.0194,0.0195,0.0226,0.023,0.0233,0.0216,0.0188,0,0,0,0,0,0.0281,0.0286,0.0281,0.0297,0.03,0.0289,0.0291,0.0282,0.0276,0.0274,0.0262,0.0247,0.0238,0.0233,0.0224,0.0228,0.018,0.0225,0.0229,0.0232,0.0216,0.0154,0.015,0.0194,0.0194,0.0194,0,0,0.0295,0.0292,0.0296,0.0301,0.0302,0.031,0.0289,0.0298,0.0297,0.0273,0.0276,0.0265,0.0243,0.0243,0.0242,0.0231,0.0197,0.0233,0.0236,0.0217,0.0154,0.0149,0.0145,0.0195,0.0195,0.0195,0,0,0.0324,0.0326,0.0339,0.0343,0.0346,0.0334,0.034,0.0333,0.0326,0.0333,0.0307,0.0295,0.0294,0.0265,0.0253,0.0271,0.0221,0.0275,0.0276,0.0217,0.0212,0.0207,0.0149,0.0139,0.0273,0.0273,0.0273,0,0.0343,0.0354,0.0347,0.0363,0.0366,0.0348,0.0363,0.0355,0.0348,0.0329,0.0342,0.0299,0.0297,0.0259,0.0275,0.0277,0.0236,0.0264,0.022,0.0214,0.0208,0.015,0.0137,0.0275,0.0275,0.0275,0.0275,0,0.0377,0.0388,0.0401,0.0406,0.0412,0.0422,0.041,0.0403,0.0393,0.0368,0.0339,0.0328,0.0294,0.0298,0.0302,0.0258,0.024,0.0235,0.0207,0.0206,0.0145,0.0131,0.0279,0.0278,0.0277,0.0277,0,0,0.0406,0.042,0.0423,0.0426,0.0432,0.0434,0.0433,0.0407,0.0382,0.037,0.0316,0.0325,0.0301,0.0285,0.0272,0.023,0.018,0.0227,0.0223,0.0165,0.0045,0.0089,0.0078,0.0169,0.0167,0.0165,0.002,0,0.0431,0.0455,0.0458,0.0476,0.0484,0.0468,0.0466,0.0438,0.0406,0.0348,0.0298,0.0268,0.0299,0.0289,0.0249,0.0199,0.0146,0.0219,0.0056,0.0051,0.0087,0.0064,0.0158,0.001,0.0007,0.0004,0.0003,0,0.0455,0.0464,0.0492,0.0489,0.0493,0.0505,0.0469,0.047,0.0384,0.0361,0.0298,0.0246,0.0191,0.0211,0.011,0.0158,0.0106,0.0059,0.0052,0.0064,0.007,0.0008,-0.0022,-0.002,-0.0018,-0.0017,-0.0015,0,0.0452,0.0477,0.0494,0.0501,0.0507,0.0512,0.0513,0.0467,0.0463,0.0361,0.0328,0.0228,0.0193,0.0107,0.0056,0.0075,-0.0084,-0.0077,-0.0106,-0.0104,-0.0121,-0.0115,-0.0186,-0.0186,-0.0185,-0.0185,-0.0185,0,0.0455,0.0464,0.0497,0.0506,0.052,0.0531,0.0536,0.0509,0.0471,0.0456,0.035,0.0305,0.0171,0.007,0.0008,-0.0075,-0.0116,-0.0123,-0.0143,-0.0097,-0.0086,-0.0131,-0.0122,-0.019,-0.0189,-0.0188,-0.0187,0,0.0438,0.0461,0.0477,0.0505,0.0522,0.0534,0.0582,0.0575,0.0556,0.052,0.0495,0.0355,0.0249,0.0101,-0.0058,-0.0107,-0.0214,-0.0243,-0.0193,-0.0205,-0.0195,-0.0182,-0.031,-0.031,-0.031,-0.031,-0.0309,0,0.0417,0.0435,0.0484,0.0507,0.0526,0.0568,0.0596,0.0612,0.0621,0.0574,0.0545,0.0409,0.0314,0.0104,-0.0037,-0.0215,-0.0219,-0.03,-0.0241,-0.0203,-0.021,-0.0198,-0.0186,-0.0309,-0.0309,-0.0309,-0.0309,0,0.0381,0.0415,0.0437,0.051,0.0549,0.0596,0.0646,0.0666,0.069,0.0656,0.06,0.0466,0.0312,0.0132,-0.0018,-0.0132,-0.0261,-0.0298,-0.0299,-0.0244,-0.0203,-0.0208,-0.0196,-0.0308,-0.0308,-0.0308,-0.0308,0,0.0356,0.0379,0.0446,0.0512,0.0567,0.0633,0.0647,0.0684,0.0708,0.0677,0.0658,0.0492,0.0383,0.0174,0.005,-0.0075,-0.0096,-0.013,-0.014,-0.0143,-0.0034,0.0046,-0.0015,0,0,0,0,0,0.0342,0.0405,0.0451,0.0537,0.0597,0.0646,0.0693,0.0708,0.0731,0.071,0.0704,0.0577,0.0372,0.025,0.0138,0.0046,-0.0131,-0.0092,-0.0178,-0.0304,-0.0305,-0.0199,0,0,0,0,0,0,0.0334,0.0396,0.0455,0.0566,0.0635,0.071,0.0744,0.0743,0.0741,0.0731,0.0616,0.0566,0.035,0.0455,0.0145,0.01,0.0033,-0.0194,-0.0197,-0.0303,-0.0304,-0.0305,-0.0196,0,0,0,0,0]}]]